Flag for Canada Weather past 2 weeks in Newmarket, Ontario, Canada

Now
34 °F

Passing clouds.


Feels Like: 31 °F
Forecast: 33 / 51 °F
Wind: 3 mph from Northwest

Location: Borden

Current Time: Oct 22, 2014 at 6:04:56 AM

Latest Report: Oct 22, 2014 at 5:00 AM


Visibility: 9 mi

Pressure: 30.26 "Hg

Humidity: 100%

Dew point: 34 °F

Location of NewmarketLocation

Historic Weather in Newmarket — Graph

°F

Newmarket temperature yesterday

Maximum temperature yesterday: 48 °F (at 12:00 AM)
Minimum temperature yesterday: 41 °F (at 8:00 PM)
Average temperature yesterday: 46 °F

Past Weeks' High & Low Weather Summary

 TemperatureHumidityPressure
High73 °F (Oct 14, 1:00 PM)100% (Oct 7, 5:00 AM)30.30 "Hg (Oct 7, 5:00 AM)
Low27 °F (Oct 12, 4:00 AM)44% (Oct 12, 2:00 PM)29.43 "Hg (Oct 17, 5:03 PM)
Average49 °F88%29.88 "Hg
* Reported Oct 7 5:00 AM — Oct 22 5:00 AM, Newmarket, Weather by CustomWeather, © 2014

Note: Actual official high and low records may vary slightly from our data, if they occured in-between our weather recording intervals... More about our weather records

Advertising

Newmarket weather history for previous 24 hours

 ConditionsComfort  
Time TempWeatherWind HumidityBarometerVisibility
5:00 AM
Oct 22
34 °FPassing clouds.3 mph100%30.26 "Hg9 mi
4:00 AM34 °FClear.2 mph100%30.25 "Hg9 mi
3:00 AM37 °FPassing clouds.3 mph87%30.24 "Hg9 mi
2:00 AM39 °FOvercast.6 mph87%30.23 "Hg9 mi
1:00 AM39 °FMostly cloudy.5 mph87%30.23 "Hg9 mi
12:00 AM41 °FOvercast.5 mph87%30.23 "Hg9 mi
11:00 PM
Oct 21
41 °FOvercast.6 mph87%30.22 "Hg9 mi
10:00 PM41 °FOvercast.6 mph93%30.20 "Hg9 mi
9:01 PM41 °FOvercast.8 mph93%30.16 "Hg9 mi
8:00 PM41 °FOvercast.7 mph100%30.15 "Hg9 mi
7:00 PM43 °FOvercast.9 mph93%30.13 "Hg9 mi
6:00 PM43 °FOvercast.9 mph100%30.09 "Hg9 mi
5:55 PM43 °FOvercast.6 mph100%30.07 "Hg9 mi
5:00 PM43 °FLow clouds.8 mph100%30.06 "Hg9 mi
4:03 PM43 °FLow clouds.6 mph100%30.02 "Hg6 mi
3:00 PM43 °FLight rain. Low clouds.8 mph100%30.01 "Hg8 mi
2:00 PM43 °FOvercast.9 mph100%29.99 "Hg9 mi
1:59 PM43 °FOvercast.10 mph100%29.98 "Hg9 mi
1:00 PM43 °FOvercast.9 mph100%29.98 "Hg9 mi
12:00 PM45 °FLight rain. Low clouds.7 mph100%29.96 "Hg9 mi
11:00 AM45 °FLow clouds.9 mph100%29.94 "Hg9 mi
10:00 AM46 °FLight rain. Low clouds.8 mph100%29.91 "Hg9 mi
9:00 AM48 °FLow clouds.9 mph100%29.88 "Hg9 mi
8:00 AM48 °FLight rain. Low clouds.8 mph100%29.85 "Hg3 mi
7:00 AM48 °FLight rain. Overcast.6 mph100%29.82 "Hg8 mi
6:56 AM48 °FLight rain. Mostly cloudy.7 mph100%29.81 "Hg8 mi
6:04 AM48 °FLow clouds.2 mph100%29.79 "Hg3 mi
Weather by CustomWeather, © 2014

See weather overviewHow to use our weather pages